Location: Berkeley
(37.8716°N, 122.2727°W)
Time: 13:05:19
(UTC-08:00)

OTV 5 (USA 277) - Visible Passes

Search period start: 19 January 2018 00:00
Search period end: 29 January 2018 00:00
Orbit: 404 x 417 km, 43.0° (Epoch: 07 September)

Date Brightness Start Highest point End Pass type
(mag) Time Alt. Az. Time Alt. Az. Time Alt. Az.
20 Jan ? 18:52:34 10° SSW 18:54:32 19° SSE 18:54:32 19° SSE visible
21 Jan ? 18:02:39 10° SSE 18:04:11 13° SE 18:05:43 10° ESE visible
21 Jan ? 19:37:43 10° WSW 19:38:56 21° WSW 19:38:56 21° WSW visible
22 Jan ? 18:46:47 10° SW 18:50:03 48° SSE 18:50:30 44° ESE visible
23 Jan ? 17:56:02 10° SSW 17:59:03 31° SSE 18:02:01 10° E visible
23 Jan ? 19:32:57 10° W 19:34:47 28° W 19:34:47 28° W visible
24 Jan ? 18:41:49 10° WSW 18:45:10 75° NNW 18:46:14 40° NE visible
25 Jan ? 17:50:44 10° WSW 17:54:06 75° SSE 17:57:28 10° ENE visible
25 Jan ? 19:28:27 10° WNW 19:30:25 27° NW 19:30:25 27° NW visible
26 Jan ? 18:37:12 10° W 18:40:27 43° NNW 18:41:49 27° NE visible
27 Jan ? 19:23:55 10° WNW 19:25:57 26° NW 19:25:57 26° NW visible
28 Jan ? 18:32:42 10° WNW 18:35:49 33° N 18:37:20 22° NE visible
